Regional Weather Roundup
Issued by NWS

Home | Current Version | Previous Version | Graphics & Text | Print | Product List | Glossary On
Versions: 1 2 3 4 5 6 7 8 9 10 11 12 13 14 15 16 17 18 19 20 21 22 23 24 25 26 27 28 29 30 31 32 33 34 35 36 37 38 39 40 41 42 43 44 45 46 47 48 49 50
000
ASUS44 KMEG 280810
RWRTN
TENNESSEE HOURLY STATE WEATHER ROUNDUP
NATIONAL WEATHER SERVICE MEMPHIS TN
300 AM CDT THU MAY 28 2015

TNZ002-004-019-021-049-052-054-088>092-280900-
WEST TENNESSEE

CITY           SKY/WX    TMP DP  RH WIND       PRES   REMARKS
MEMPHIS INTL   CLOUDY    70  66  87 SE5       30.12F
NWS MEMPHIS      N/A     68 N/A N/A MISG        N/A
JACKSON        NOT AVBL
DYERSBURG      CLEAR     66  52  59 CALM      30.14F
PARIS            N/A     61  59  94 CALM      30.14F VSB 1/4
LEXINGTON      CLOUDY    63  61  94 CALM      30.14S VSB 1/4
$$

TNZ008-025-027-028-033-062-065-066-280900-
NORTH MIDDLE TENNESSEE

CITY           SKY/WX    TMP DP  RH WIND       PRES   REMARKS
NASHVILLE      NOT AVBL
CLARKSVILLE    FOG       65  64  97 CALM      30.14F VSB 1/4
SMYRNA         CLOUDY    66  66 100 CALM      30.15F
COOKEVILLE     CLEAR     64  64 100 NE3       30.16R
CROSSVILLE     CLOUDY    66  62  87 CALM      30.20F
$$

TNZ061-075-076-078-094-096-097-280900-
SOUTH MIDDLE TENNESSEE

CITY           SKY/WX    TMP DP  RH WIND       PRES   REMARKS
FAYETTEVILLE   PTCLDY   N/A N/A N/A MISG      30.15R
TULLAHOMA      PTCLDY    63  63 100 N3        30.17R
WINCHESTER     CLOUDY    64  63  94 N5        30.15R
MCMINNVILLE    PTCLDY    64  64 100 N5        30.17R
COLUMBIA       MOCLDY    66  66 100 SE3       30.12F
SHELBYVILLE    PTCLDY    66  66 100 SE5       30.16F
$$

TNZ017-018-042-046-047-280900-
NORTHEAST TENNESSEE

CITY           SKY/WX    TMP DP  RH WIND       PRES   REMARKS
TRI CITIES     CLOUDY    65  62  90 CALM      30.21S
ELIZABETHTON   SUNNY     61  59  94 CALM      30.22S
$$

TNZ012-013-036-069-073-074-280900-
CENTRAL EAST TENNESSEE

CITY           SKY/WX    TMP DP  RH WIND       PRES   REMARKS
KNOXVILLE      MOCLDY    70  62  76 S6        30.16F
OAK RIDGE      MOCLDY    69  66  90 CALM      30.18F
GATLINBURG       N/A     63  61  94 CALM      30.18S
MORRISTOWN     SUNNY     68  63  83 CALM      30.20F
$$

TNZ083-085-099-280900-
SOUTHEAST TENNESSEE

CITY           SKY/WX    TMP DP  RH WIND       PRES   REMARKS
CHATTANOOGA    CLOUDY    69  63  81 CALM      30.15S
$$

SKY/WX REPORTED AS FAIR MEANS FEW OR NO CLOUDS BELOW
12 THOUSAND FEET.




USA.gov is the U.S. government's official web portal to all federal, state and local government web resources and services.